This is the latest recevied weather packets stored in our database for station/object K1BWE-1. If no packets are shown the sender has not sent any weather packets the latest 10 day(s).
| Time | Temp. | Humidity | Pressure | Rain* | Wind** | Luminosity | Snow |
|---|---|---|---|---|---|---|---|
| 1777276968 | 11.67° C | 45% | 1015.2 hPa | 0 mm | - | 0 W/m² | - |
| 1777276664 | 11.67° C | 46% | 1015 hPa | 0 mm | - | 0 W/m² | - |
| 1777276360 | 12.22° C | 46% | 1015.4 hPa | 0 mm | - | 0 W/m² | - |
| 1777276057 | 12.22° C | 45% | 1015.1 hPa | 0 mm | - | 0 W/m² | - |
| 1777275753 | 12.78° C | 44% | 1015.1 hPa | 0 mm | - | 0 W/m² | - |
| 1777275452 | 12.22° C | 44% | 1015.3 hPa | 0 mm | - | 0 W/m² | - |
| 1777275147 | 12.78° C | 43% | 1015.3 hPa | 0 mm | - | 0 W/m² | - |
| 1777274843 | 12.78° C | 43% | 1015.4 hPa | 0 mm | - | 0 W/m² | - |
| 1777274541 | 13.33° C | 41% | 1015.3 hPa | 0 mm | - | 0 W/m² | - |
| 1777274236 | 13.33° C | 42% | 1015.1 hPa | 0 mm | - | 0 W/m² | - |
| 1777273932 | 13.33° C | 41% | 1015.3 hPa | 0 mm | - | 0 W/m² | - |
| 1777273629 | 13.89° C | 41% | 1015.2 hPa | 0 mm | - | 0 W/m² | - |
| 1777273328 | 13.89° C | 40% | 1015.3 hPa | 0 mm | - | 0 W/m² | - |
| 1777273025 | 13.89° C | 42% | 1015.4 hPa | 0 mm | - | 0 W/m² | - |
| 1777272722 | 13.33° C | 42% | 1015.1 hPa | 0 mm | - | 0 W/m² | - |
| 1777272419 | 13.89° C | 42% | 1015 hPa | 0 mm | - | 0 W/m² | - |
| 1777272117 | 13.89° C | 42% | 1015.5 hPa | 0 mm | - | 0 W/m² | - |
| 1777271813 | 13.89° C | 42% | 1015.1 hPa | 0 mm | - | 0 W/m² | - |
| 1777271509 | 13.33° C | 42% | 1015.1 hPa | 0 mm | - | 0 W/m² | - |
| 1777271205 | 13.33° C | 42% | 1015 hPa | 0 mm | - | 0 W/m² | - |
| 1777270901 | 13.33° C | 42% | 1015.2 hPa | 0 mm | - | 0 W/m² | - |
| 1777270597 | 13.89° C | 42% | 1014.9 hPa | 0 mm | - | 0 W/m² | - |
| 1777270295 | 13.89° C | 43% | 1015.3 hPa | 0 mm | - | 0 W/m² | - |
| 1777269992 | 13.89° C | 42% | 1015 hPa | 0 mm | - | 0 W/m² | - |
| 1777269687 | 14.44° C | 42% | 1015.1 hPa | 0 mm | - | 0 W/m² | - |
* Rain latest hour (hover to see other rain measurements)
** Current wind speed in m/s (hover to see current wind gust speed)